Location: Cry
(47.7073°N, 4.2390°E)
Time: 01:28:43
(UTC+00:00)

Daily predictions for brighter satellites

Satellite Brightness Start Highest point End
(mag) Time Altitude Azimuth Time Altitude Azimuth Time Altitude Azimuth
Cosmos 2333 4.2 00:04:10 10° NNW 00:09:55 67° WSW 00:10:14 66° SW
Cosmos 1464 Rocket 4.0 00:08:47 58° SSE 00:09:56 72° E 00:16:09 10° NNE
Cosmos 2219 Rocket 2.1 00:04:46 10° NNW 00:10:30 89° ENE 00:11:13 69° SSE
Cosmos 836 Rocket 4.4 00:06:26 10° NNW 00:11:32 69° W 00:11:32 69° W
Lacrosse 4 Rocket 1.8 00:13:01 62° NNE 00:13:01 62° NNE 00:16:34 10° NNE
Cosmos 1782 Rocket 3.7 00:12:54 67° NNE 00:12:54 67° NNE 00:16:45 10° NNE
Cosmos 1354 Rocket 4.1 00:16:38 63° ESE 00:16:49 64° ESE 00:22:06 10° NNE
Cosmos 2322 Rocket 4.0 00:14:22 10° WNW 00:17:43 18° W 00:17:43 18° W
Cosmos 968 Rocket 3.3 00:19:13 73° W 00:19:30 76° WNW 00:24:39 10° NNE
SL-4 R/B 4.1 00:22:19 16° ENE 00:22:19 16° ENE 00:23:10 10° ENE
Cosmos 1908 Rocket 4.2 00:21:10 47° WNW 00:21:10 47° WNW 00:25:08 10° N
Landsat 4 4.5 00:17:12 10° N 00:20:07 50° N 00:20:07 50° N
SL-16 R/B 4.5 00:17:09 10° N 00:21:29 22° NE 00:25:49 10° E
COSMOS 2428 2.6 00:22:51 10° NNW 00:28:37 76° WSW 00:29:11 69° SSW
SL-16 R/B 3.4 00:28:37 22° ESE 00:32:13 44° ENE 00:38:06 10° N
CENTAUR R/B 4.1 00:27:55 10° W 00:33:45 35° NNW 00:40:34 10° NE
Nadezhda 4 Rocket 3.9 00:27:25 10° N 00:33:47 84° E 00:35:18 55° SSE
Cosmos 2360 Rocket 3.6 00:29:29 10° NW 00:33:24 24° W 00:33:24 24° W
CZ-2D R/B 3.4 00:31:56 10° NE 00:36:42 30° E 00:38:05 26° ESE
Cosmos 2034 Rocket 3.9 00:35:41 57° S 00:37:03 82° E 00:43:23 10° N
USA 267 4.4 00:32:57 10° E 00:39:03 44° NNE 00:45:11 10° WNW
Okean 2 Rocket 3.2 00:41:46 65° E 00:41:46 65° E 00:46:09 10° NNE
GEOS 3 Rocket 3.7 00:36:51 10° NE 00:42:15 64° SE 00:42:46 61° SSE
Meteor 2-9 Rocket 4.2 00:41:29 59° WSW 00:42:17 67° WNW 00:47:56 10° N
ADEOS II 4.4 00:42:04 10° NE 00:44:54 14° E 00:47:27 11° ESE
Cosmos 1975 3.9 00:45:31 37° NW 00:45:31 37° NW 00:48:48 10° N
Cosmos 1092 Rocket 4.2 00:39:37 10° N 00:45:53 67° ENE 00:48:01 42° SE
Cosmos 1975 Rocket 3.8 00:41:49 10° NNW 00:45:36 44° WNW 00:45:36 44° WNW
Cosmos 2297 Rocket 3.1 00:45:36 32° SE 00:46:31 34° ESE 00:51:35 10° NE
Cosmos 2219 3.9 00:45:50 37° SE 00:46:40 40° ESE 00:51:52 10° NE
Cosmos 1980 3.9 00:41:58 10° NNW 00:47:40 69° ENE 00:49:51 38° SE
PSLV R/B 4.2 00:43:41 10° N 00:48:10 50° WNW 00:48:26 49° W
Cosmos 2333 Rocket 2.6 00:42:46 10° NW 00:48:11 45° WSW 00:48:11 45° WSW
Sich 1 Rocket 3.6 00:48:43 68° WNW 00:48:43 68° WNW 00:52:56 10° N
Helios 1B rocket 2.7 00:45:06 10° N 00:48:49 61° NW 00:48:49 61° NW
Cosmos 1777 Rocket 4.5 00:49:00 45° SE 00:49:40 48° ESE 00:54:44 10° NNE
Meteor 1-29 3.9 00:49:38 10° NNE 00:52:12 47° NNE 00:52:12 47° NNE
Cosmos 44 Rocket 3.2 00:50:07 10° NW 00:55:06 73° WSW 00:55:08 73° SW
Cosmos 783 Rocket 4.5 00:50:06 10° NNW 00:55:17 62° WSW 00:55:27 62° WSW
Cosmos 1503 Rocket 4.4 00:56:39 48° WSW 00:57:39 56° WNW 01:02:58 10° NNE
Cosmos 2237 Rocket 2.2 00:52:03 10° NNW 00:57:44 76° ENE 00:59:51 40° SE
Cosmos 1300 Rocket 3.4 00:57:53 85° NE 00:57:53 85° NE 01:02:07 10° N
DELTA 2 DEB (DPAF) 4.2 01:00:27 63° ESE 01:00:58 70° ENE 01:05:24 10° N
Okean 1 Rocket 4.1 01:01:02 32° ESE 01:01:40 34° E 01:05:36 10° NNE
CZ-4C R/B 3.9 01:04:19 43° ENE 01:04:19 43° ENE 01:07:36 10° N
Spot 1 3.8 01:06:48 88° NNW 01:06:48 88° NNW 01:10:54 10° NNW
Iridium 51 4.3 01:04:17 10° N 01:08:43 85° E 01:08:43 85° E
Cosmos 2151 Rocket 3.4 01:12:29 81° SW 01:12:41 86° W 01:17:07 10° N
Meteor 1-12 Rocket 4.3 01:11:28 52° SSW 01:12:59 78° WNW 01:19:03 10° N
Timation 2 Rocket 3.8 01:14:34 49° SSW 01:16:23 88° NW 01:22:27 10° NNE
Cosmos 1707 3.8 01:14:10 10° NNW 01:17:05 36° WNW 01:17:05 36° WNW
In-Cosmos 22 4.1 01:12:24 10° NNW 01:18:02 73° W 01:19:15 54° SSW
Meteor 1-15 Rocket 4.3 01:22:53 43° SSE 01:24:43 71° E 01:30:19 10° NNE
Cosmos 1805 3.8 01:24:26 46° ESE 01:24:46 48° E 01:28:32 10° NNE
SJ 16-02 2.8 01:25:10 25° SE 01:26:19 28° E 01:30:05 10° NE
DNEPR-1 R/B 4.2 01:20:52 10° NW 01:26:52 73° NE 01:31:05 14° SE
ERBS 3.2 01:23:46 10° NW 01:26:59 47° NNE 01:30:11 10° ESE
Meteor 2-13 Rocket 4.4 01:26:11 10° NNW 01:32:14 65° W 01:34:11 43° SSW
Cosmos 1538 Rocket 3.9 01:29:35 10° NNW 01:34:43 66° WSW 01:35:51 51° SSW
Cosmos 2227 Rocket 2.3 01:33:34 43° S 01:35:22 69° ESE 01:41:02 10° NNE
Cosmos 1025 Rocket 3.9 01:32:33 10° NNW 01:36:08 34° W 01:36:08 34° W
MOZ.5/SAFIR/RUBIN 5/SL-8 4.1 01:36:59 47° WSW 01:37:20 48° W 01:41:58 10° NNW
Resurs 1-4 Rocket 2.0 01:32:26 10° NNE 01:37:46 89° WNW 01:39:24 46° SSW
Cosmos 1674 2.5 01:36:10 10° NNW 01:39:47 74° WNW 01:39:47 74° WNW
Cosmos 1733 3.6 01:42:54 47° SE 01:43:32 54° E 01:47:18 10° NNE
NOSS 0 Rocket 4.5 01:38:07 10° NW 01:43:48 38° WSW 01:44:39 36° SW
ATLAS 3B R/B 4.1 01:41:15 10° W 01:46:58 30° NNW 01:52:49 10° NNE
Cosmos 2279 Rocket 4.0 01:44:46 33° S 01:47:43 80° E 01:53:56 10° N
Cosmos 1536 Rocket 4.4 01:44:36 10° NNW 01:48:26 34° W 01:48:26 34° W
USA 215 3.5 01:42:12 10° ENE 01:48:39 56° SE 01:51:29 33° SSW
Cosmos 2026 Rocket 4.0 01:42:59 10° NNW 01:48:55 58° W 01:51:08 37° SSW
COBE Rocket 3.9 01:47:33 31° SSE 01:49:49 75° ENE 01:54:28 10° N
Lacrosse 4 Rocket 3.8 01:49:19 11° WNW 01:51:38 16° NW 01:54:13 10° N
Cosmos 1634 Rocket 4.1 01:50:26 37° SW 01:52:55 62° WNW 01:59:07 10° N
FALCON 9 DEB 4.3 01:49:49 10° WNW 01:53:12 45° NNE 01:56:33 10° E
Cosmos 2219 Rocket 4.0 01:50:26 10° WNW 01:52:54 15° W 01:52:54 15° W
Cosmos 2344 4.4 01:45:46 10° NW 01:55:19 66° WSW 02:08:36 10° SSE
Cosmos 2082 4.0 01:53:29 32° S 01:55:57 58° ESE 02:01:28 10° NE
SL-24 R/B 4.4 01:53:41 32° SSE 01:55:57 79° E 02:00:58 10° N
SL-4 R/B 1.5 01:58:02 28° WNW 01:59:42 81° NNE 02:03:05 10° ESE
Cosmos 2112 Rocket 4.4 01:55:01 10° NNW 02:00:15 64° ENE 02:05:24 10° SSE
Meteor 1-24 Rocket 3.6 01:59:50 10° NNW 02:05:22 89° E 02:08:55 22° S
SL-16 R/B 2.1 02:00:39 10° NNW 02:06:23 86° WSW 02:12:04 10° SSE
CBERS-1 4.1 02:01:27 10° NNE 02:06:37 76° ESE 02:09:09 30° S
Meteor 2-5 Rocket 3.7 02:03:27 10° NNW 02:09:04 67° W 02:11:59 29° S
ARIANE 5 R/B 3.5 02:09:01 10° NNE 02:14:01 44° E 02:18:02 15° SSE
H-2A R/B 4.4 02:11:26 10° ESE 02:14:40 23° ENE 02:17:55 10° NNE
Cosmos 1898 Rocket 4.1 02:11:41 23° S 02:14:43 52° ESE 02:19:48 10° NNE
SL-16 R/B 3.1 02:13:42 29° SW 02:15:54 37° W 02:21:40 10° NNW
NPP 4.0 02:10:41 10° N 02:15:56 54° WNW 02:18:22 30° SW
IDEFIX/ARIANE 42P 4.1 02:12:12 10° NNE 02:16:49 31° E 02:21:25 10° SSE
CZ-2D R/B 2.7 02:11:42 10° N 02:16:56 46° WNW 02:19:24 28° WSW
Cosmos 1680 Rocket 3.4 02:12:48 10° NNW 02:18:04 81° WSW 02:22:58 12° SSE
NOSS 3-1 (C) 4.0 02:17:24 22° S 02:20:32 45° ESE 02:26:26 10° NE
USA 267 3.4 02:15:07 10° ESE 02:21:40 81° NNE 02:28:14 10° NW
AQUA 4.2 02:17:50 10° N 02:22:27 51° WNW 02:24:26 31° SW
Cosmos 1544 Rocket 4.3 02:20:01 18° SSE 02:23:04 51° E 02:27:25 10° NNE
Cosmos 1607 4.0 02:18:41 10° NW 02:25:05 67° WSW 02:31:29 10° SSE
ADEOS II 2.0 02:20:00 10° NNE 02:25:18 85° WNW 02:28:23 26° SSW
Cosmos 990 Rocket 4.1 02:23:20 25° S 02:26:22 70° ESE 02:31:33 10° NNE
Cosmos 1766 3.9 02:26:32 33° WSW 02:27:29 38° WNW 02:31:10 10° N
Cosmos 2263 Rocket 3.8 02:24:15 10° SSE 02:28:55 28° ESE 02:33:35 10° NE
IRS-1D 3.5 02:24:06 10° N 02:29:07 68° WNW 02:31:54 27° SSW
Meteor 1-22 Rocket 4.1 02:27:12 27° SSW 02:30:04 70° WNW 02:35:23 10° N
Cosmos 2297 Rocket 2.9 02:27:24 24° WSW 02:30:27 44° NW 02:35:52 10° NNE
Cosmos 2219 4.1 02:27:45 22° WSW 02:30:50 38° NW 02:36:05 10° NNE
Okean 1-7 Rocket 3.5 02:27:33 10° NNW 02:31:59 78° W 02:35:04 19° S
IRS-1C 4.1 02:29:31 10° NNE 02:34:54 84° ESE 02:38:42 20° SSW
Cosmos 1626 2.7 02:34:32 10° NNW 02:38:01 38° W 02:38:56 32° SW
Cosmos 2266 Rocket 4.0 02:32:32 10° NNW 02:38:55 74° W 02:45:02 11° S
Meteor 1-28 Rocket 3.1 02:36:22 18° S 02:39:09 83° WSW 02:42:59 10° NNW
Okean 1 Rocket 4.4 02:38:14 21° W 02:39:38 25° WNW 02:43:15 10° NNW
Cosmos 1655 Rocket 4.1 02:33:37 10° NNW 02:39:44 56° W 02:44:28 17° SSW
Cosmos 2237 Rocket 3.6 02:37:22 10° WNW 02:41:07 18° W 02:41:37 18° WSW
CZ-4B R/B 3.9 02:37:47 10° N 02:42:20 44° WNW 02:44:51 24° SW
Cosmos 1470 2.7 02:41:43 25° SSW 02:43:58 81° W 02:47:58 10° N
Cosmos 1603 4.3 02:40:10 10° NNW 02:45:52 60° ENE 02:51:31 10° SE
SL-08 R/B 3.4 02:43:55 12° S 02:48:31 64° WSW 02:53:28 10° NNW
USA 229 DEB 3.8 02:48:34 18° SSW 02:53:36 67° ESE 03:00:24 10° NE
USA 229 3.9 02:48:40 17° SSW 02:53:41 66° ESE 03:00:28 10° NE
Cosmos 2098 Rocket 3.7 02:49:20 10° NNW 02:53:56 54° W 02:59:35 11° S
OPS 8737 4.2 02:57:00 24° SW 02:59:01 89° NW 03:02:02 10° NE
ERBS 3.4 03:00:23 10° WNW 03:03:33 23° SW 03:05:46 10° S
Meteor 2-14 Rocket 4.4 02:57:40 10° N 03:03:46 89° W 03:09:50 10° S
NOSS 2-3 (C) 4.4 03:01:07 14° SSW 03:04:32 47° ESE 03:09:18 10° NE
NOSS 3-1 (A) 3.8 03:00:07 14° SSW 03:04:45 56° ESE 03:10:56 10° NE
SJ 16-02 2.3 03:02:10 18° WSW 03:04:48 34° WNW 03:08:51 10° N
CSL-04 DEB 4.2 03:06:05 10° SSE 03:09:59 83° WSW 03:13:57 10° NNW
Cosmos 1809 Rocket 4.5 03:06:58 10° NNW 03:12:59 64° W 03:19:00 10° S
MSX 4.2 03:07:15 10° NNE 03:13:00 67° ESE 03:18:45 10° S
Cosmos 1943 3.4 03:07:31 10° NNW 03:13:10 79° ENE 03:18:47 10° SSE
Cosmos 1626 Rocket 3.5 03:10:02 10° NNW 03:14:18 61° W 03:18:32 10° S
Cosmos 1455 Rocket 3.9 03:11:32 17° SW 03:14:25 35° WNW 03:18:31 10° N
Cosmos 1758 3.8 03:13:24 16° SW 03:16:19 43° WNW 03:20:12 10° N
Resurs 1-4 Rocket 4.0 03:13:44 10° NNW 03:16:51 16° NW 03:19:57 10° W
Spot 4 Rocket 4.0 03:12:27 10° NNE 03:17:38 77° WNW 03:22:46 10° SSW
Meteor 1-21 Rocket 4.1 03:12:31 10° NNW 03:18:05 76° W 03:23:35 10° S
Cosmos 2227 Rocket 3.6 03:15:24 10° W 03:19:58 25° NW 03:24:38 10° N
SeaSat 1 3.1 03:17:01 10° NE 03:21:53 55° ESE 03:26:42 10° SSW
Landsat 5 3.3 03:20:51 10° S 03:24:44 78° WSW 03:28:46 10° NNW
CZ-2C R/B 2.7 03:21:52 10° NNE 03:25:48 86° W 03:29:36 10° SSW
Cosmos 1461 3.6 03:23:26 14° WSW 03:27:05 48° NW 03:31:33 10° NNE
CZ-2D R/B 3.7 03:23:23 10° N 03:27:21 52° WNW 03:31:10 10° SSW
FALCON 9 DEB 3.4 03:26:55 10° WNW 03:30:17 48° SW 03:33:37 10° SE
Cosmos 2227 4.3 03:24:58 10° SSW 03:30:44 89° ESE 03:36:33 10° NNE
USA 215 3.6 03:25:17 10° NE 03:31:43 61° NNW 03:38:08 10° WSW
ATLAS 3B CENTAUR R/B 4.4 03:27:04 11° SW 03:32:08 16° SSW 03:36:01 10° S
Cosmos 1758 Rocket 3.7 03:27:57 10° N 03:32:17 80° E 03:36:36 10° SSE
ATLAS CENTAUR R/B 3.7 03:29:39 10° SSE 03:32:33 18° ESE 03:35:21 10° ENE
Cosmos 1340 Rocket 3.9 03:29:56 13° SW 03:32:59 29° WNW 03:36:30 10° N
ERS-2 2.1 03:32:24 10° S 03:36:00 63° WSW 03:39:38 10° NNW
Cosmos 724 4.4 03:30:08 10° NW 03:36:00 56° WSW 03:41:56 10° SSE
Cosmos 2228 3.9 03:32:58 10° S 03:37:12 53° E 03:41:30 10° NNE
SL-4 R/B 2.8 03:36:16 10° W 03:38:54 21° SW 03:41:32 10° S
Cosmos 1953 2.7 03:35:22 10° SSW 03:39:14 47° WNW 03:43:10 10° N
Cosmos 1726 2.8 03:38:46 10° SW 03:42:11 36° WNW 03:45:38 10° N
Cosmos 1908 3.2 03:40:26 10° S 03:44:20 87° W 03:48:17 10° N
Meteor 1-16 Rocket 4.1 03:40:09 10° SSW 03:45:30 76° WNW 03:51:02 10° N
Cosmos 2285 Rocket 4.2 03:41:00 10° SSW 03:47:17 77° ESE 03:53:35 10° NNE
SL-16 R/B 3.8 03:46:44 10° WNW 03:49:36 14° W 03:52:27 10° SW
H-2A R/B 2.5 03:46:37 10° SSW 03:50:28 37° W 03:54:19 10° NNW
Cosmos 2150 Rocket 4.1 03:46:55 10° SSW 03:52:04 82° ESE 03:57:20 10° NNE
Cosmos 1937 Rocket 4.4 03:47:32 10° SW 03:52:26 37° WNW 03:57:22 10° N
ARIANE 5 R/B 3.6 03:48:28 10° N 03:52:57 30° WNW 03:57:26 10° WSW
Cosmos 1825 Rocket 3.5 03:50:31 10° NNW 03:54:52 76° W 03:59:11 10° S
IDEFIX/ARIANE 42P 3.2 03:51:40 10° N 03:56:29 39° WNW 04:01:17 10° SW
